Home > Weather > Kazan > Past weeks

Flag for Russia Weather for the Past 2 Weeks in Kazan, Russia

Now
23 °F

Passing clouds.


Feels Like: 12 °F
Forecast: 10 / 28 °F
Wind: 10 mph from West

Location: Kazan'

Current Time: Feb 7, 2016 at 6:08:16 PM

Latest Report: Feb 7, 2016 at 5:30 PM


Visibility: N/A

Pressure: 30.15 "Hg

Humidity: 86%

Dew point: 19 °F

Location of KazanLocation

Historic Weather in Kazan — Graph

°F

Kazan Temperature Yesterday

Maximum temperature yesterday: 28 °F (at 1:30 PM)
Minimum temperature yesterday: 16 °F (at 8:00 AM)
Average temperature yesterday: 22 °F

High & Low Weather Summary for the Past Weeks

 TemperatureHumidityPressure
High36 °F (Jan 31, 1:30 PM)100% (Jan 23, 4:00 PM)30.33 "Hg (Jan 23, 4:00 PM)
Low-24 °F (Jan 27, 4:00 AM)64% (Feb 5, 3:00 PM)29.39 "Hg (Feb 3, 9:30 PM)
Average15 °F89%29.91 "Hg
* Reported Jan 23 4:00 PM — Feb 7 4:30 PM, Kazan, Weather by CustomWeather, © 2016

Note: Actual official high and low records may vary slightly from our data, if they occured in-between our weather recording intervals... More about our weather records

Advertising

Kazan Weather History for the Previous 24 Hours

 ConditionsComfort  
Time TempWeatherWind HumidityBarometerVisibility
4:30 PM
Sun, Feb 7
25 °FLight snow. Partly sunny.13 mph80%30.12 "HgN/A
4:00 PM25 °FPartly sunny.15 mph86%30.12 "HgN/A
3:30 PM27 °FPartly sunny.10 mph86%30.12 "HgN/A
3:00 PM27 °FPartly sunny.13 mph86%30.09 "HgN/A
2:30 PM28 °FPartly sunny.13 mph86%30.09 "HgN/A
2:00 PM28 °FPartly sunny.10 mph86%30.09 "HgN/A
1:30 PM28 °FPartly sunny.8 mph86%30.09 "HgN/A
1:00 PM28 °FPartly sunny.8 mph86%30.09 "HgN/A
12:30 PM28 °FPartly sunny.10 mph86%30.09 "HgN/A
12:00 PM28 °FOvercast.13 mph86%30.09 "HgN/A
11:30 AM28 °FLow clouds.15 mph93%30.09 "HgN/A
11:00 AM28 °FScattered clouds.13 mph86%30.09 "HgN/A
10:30 AM27 °FScattered clouds.8 mph100%30.09 "Hg5 mi
10:00 AM25 °FClear.8 mph100%30.09 "Hg4 mi
9:30 AM25 °FIce fog.6 mph93%30.07 "Hg3 mi
9:00 AM23 °FLight snow. Ice fog.3 mph100%30.07 "Hg2 mi
8:30 AM23 °FLight snow. Ice fog.3 mph100%30.07 "Hg3 mi
8:00 AM23 °FLight snow. Ice fog.6 mph100%30.07 "Hg2 mi
7:30 AM23 °FCold.6 mph100%30.04 "Hg2 mi
7:00 AM21 °FIce fog.6 mph100%30.04 "Hg2 mi
6:30 AM23 °FIce fog.3 mph100%30.04 "Hg1 mi
6:00 AM23 °FIce fog.3 mph93%30.01 "Hg1 mi
5:30 AM23 °FCold.6 mph100%30.01 "Hg2 mi
5:00 AM23 °FCold.3 mph93%30.01 "Hg1 mi
4:30 AM23 °FIce fog.3 mph100%30.01 "Hg1 mi
4:00 AM23 °FIce fog.3 mph93%30.01 "Hg1 mi
3:30 AM23 °FIce fog.6 mph100%30.01 "Hg2 mi
3:00 AM23 °FIce fog.6 mph100%30.01 "Hg2 mi
2:30 AM23 °FIce fog.3 mph100%29.98 "Hg3 mi
2:00 AM25 °FPassing clouds.3 mph100%29.98 "Hg4 mi
1:30 AM25 °FClear.6 mph93%29.98 "Hg4 mi
12:00 AM25 °FPassing clouds.3 mph93%29.98 "Hg4 mi
11:30 PM
Sat, Feb 6
23 °FPassing clouds.1 mph100%29.98 "Hg4 mi
11:00 PM23 °FClear.1 mph93%29.98 "Hg4 mi
10:30 PM23 °FClear.1 mph93%29.98 "Hg5 mi
10:00 PM23 °FClear.1 mph93%29.98 "Hg5 mi
9:30 PM23 °FClear.1 mph100%29.98 "Hg5 mi
9:00 PM23 °FClear.3 mph93%29.98 "Hg5 mi
8:30 PM23 °FClear.3 mph93%29.98 "Hg6 mi
8:00 PM23 °FClear.3 mph93%29.98 "Hg10 mi
7:30 PM23 °FClear.3 mph93%29.95 "Hg10 mi
7:00 PM25 °FClear.3 mph93%29.95 "Hg10 mi
6:30 PM25 °FClear.3 mph93%29.95 "Hg10 mi
6:00 PM23 °FClear.3 mph93%29.95 "Hg10 mi
Weather by CustomWeather, © 2016

See weather overviewHow to use our weather pages